QPF
0.00 0.00 0.00 0.00 0.00 0.00 0.00 0.00 0.00 0.00 0.00 0.00 0.00 0.00 0.00 0.00 0.00 0.00 0.01 0.01 0.01 0.02 0.02 0.06 0.23 0.17 0.06 0.01 0.02 0.03 0.02 0.01 0.04 0.07 0.03 0.06 0.09 0.11 0.11 0.06 0.03 0.02 0.02 0.00
0.00 0.00 0.00 0.00 0.00 0.00 0.00 0.00 0.00 0.00 0.00 0.00 0.00 0.00 0.00 0.00 0.00 0.00 0.00 0.00 0.01 0.01 0.01 0.03 0.08 0.04 0.03 0.00 0.01 0.01 0.01 0.01 0.01 0.01 0.02 0.12 0.11 0.17 0.18 0.21 0.18 0.12 0.07 0.10
0.00 0.01 0.00 0.00 0.00 0.00 0.00 0.00 0.00 0.00 0.00 0.00 0.00 0.00 0.00 0.00 0.00 0.00 0.00 0.00 0.00 0.00 0.01 0.02 0.01 0.00 0.00 0.00 0.00 0.00 0.01 0.02 0.02 0.00 0.01 0.02 0.04 0.09 0.14 0.24 0.18 0.22 0.16 0.19
0.00 0.01 0.01 0.00 0.02 0.02 0.00 0.00 0.00 0.00 0.00 0.00 0.00 0.00 0.00 0.00 0.00 0.00 0.00 0.00 0.00 0.00 0.00 0.01 0.01 0.00 0.00 0.00 0.00 0.00 0.00 0.00 0.01 0.01 0.01 0.01 0.01 0.04 0.05 0.06 0.08 0.12 0.16 0.16
0.01 0.01 0.00 0.00 0.01 0.04 0.01 0.01 0.02 0.00 0.00 0.00 0.00 0.00 0.00 0.00 0.00 0.00 0.00 0.00 0.00 0.00 0.00 0.00 0.00 0.00 0.00 0.00 0.00 0.00 0.00 0.00 0.01 0.00 0.00 0.00 0.00 0.00 0.01 0.01 0.02 0.03 0.13 0.19
0.00 0.00 0.00 0.00 0.00 0.00 0.03 0.02 0.02 0.01 0.00 0.00 0.00 0.00 0.00 0.00 0.00 0.00 0.00 0.00 0.00 0.00 0.00 0.00 0.00 0.00 0.00 0.00 0.00 0.00 0.00 0.00 0.00 0.00 0.00 0.00 0.00 0.01 0.01 0.00 0.01 0.01 0.01 0.03
0.00 0.00 0.00 0.00 0.00 0.00 0.00 0.00 0.02 0.06 0.04 0.02 0.02 0.01 0.00 0.00 0.00 0.00 0.00 0.00 0.00 0.00 0.00 0.00 0.00 0.00 0.00 0.00 0.00 0.00 0.00 0.00 0.00 0.00 0.00 0.00 0.00 0.00 0.00 0.00 0.01 0.02 0.01 0.02
0.00 0.00 0.00 0.00 0.00 0.00 0.00 0.01 0.03 0.06 0.07 0.04 0.02 0.00 0.00 0.00 0.00 0.00 0.00 0.00 0.00 0.00 0.00 0.00 0.00 0.00 0.00 0.00 0.00 0.00 0.00 0.00 0.00 0.00 0.00 0.00 0.00 0.00 0.00 0.00 0.00 0.00 0.00 0.00
0.00 0.00 0.00 0.00 0.00 0.00 0.00 0.01 0.02 0.04 0.05 0.04 0.02 0.01 0.00 0.00 0.00 0.00 0.00 0.00 0.00 0.00 0.00 0.00 0.00 0.00 0.00 0.00 0.00 0.00 0.00 0.00 0.00 0.00 0.00 0.00 0.00 0.00 0.00 0.00 0.00 0.00 0.00 0.00
0.00 0.00 0.00 0.00 0.00 0.00 0.00 0.02 0.01 0.03 0.02 0.02 0.01 0.02 0.01 0.00 0.00 0.00 0.00 0.00 0.00 0.00 0.00 0.00 0.00 0.00 0.00 0.00 0.00 0.00 0.00 0.00 0.00 0.00 0.00 0.00 0.00 0.00 0.00 0.00 0.00 0.00 0.00 0.00
0.00 0.00 0.00 0.00 0.00 0.00 0.00 0.00 0.01 0.01 0.02 0.02 0.01 0.01 0.00 0.00 0.00 0.00 0.00 0.00 0.00 0.00 0.00 0.00 0.00 0.00 0.00 0.00 0.00 0.00 0.00 0.00 0.00 0.00 0.00 0.00 0.00 0.00 0.00 0.00 0.00 0.00 0.00 0.00
0.00 0.00 0.00 0.00 0.00 0.00 0.00 0.00 0.00 0.00 0.00 0.00 0.00 0.00 0.00 0.00 0.00 0.00 0.00 0.00 0.00 0.00 0.00 0.00 0.00 0.00 0.00 0.00 0.00 0.00 0.00 0.00 0.00 0.00 0.00 0.00 0.00 0.00 0.00 0.00 0.00 0.00 0.00 0.00
0.00 0.00 0.00 0.00 0.00 0.00 0.00 0.00 0.00 0.00 0.00 0.00 0.00 0.00 0.00 0.00 0.00 0.00 0.00 0.00 0.00 0.00 0.00 0.00 0.00 0.00 0.00 0.00 0.00 0.00 0.00 0.00 0.00 0.00 0.00 0.00 0.00 0.00 0.00 0.00 0.00 0.00 0.00 0.00
0.00 0.00 0.00 0.00 0.00 0.00 0.00 0.00 0.00 0.00 0.00 0.00 0.00 0.00 0.00 0.00 0.00 0.00 0.00 0.00 0.00 0.00 0.00 0.00 0.00 0.00 0.00 0.00 0.00 0.00 0.00 0.00 0.00 0.00 0.00 0.00 0.00 0.00 0.00 0.00 0.00 0.00 0.00 0.00
0.00 0.00 0.00 0.00 0.00 0.00 0.00 0.00 0.00 0.00 0.00 0.00 0.00 0.00 0.00 0.00 0.00 0.00 0.00 0.00 0.00 0.00 0.00 0.00 0.00 0.00 0.00 0.00 0.00 0.00 0.00 0.00 0.00 0.00 0.00 0.00 0.00 0.00 0.00 0.00 0.00 0.00 0.00 0.00
0.00 0.00 0.00 0.00 0.00 0.00 0.00 0.00 0.00 0.00 0.00 0.00 0.00 0.00 0.00 0.00 0.00 0.00 0.00 0.00 0.00 0.00 0.00 0.00 0.00 0.00 0.00 0.00 0.00 0.00 0.00 0.00 0.00 0.00 0.00 0.00 0.00 0.00 0.00 0.00 0.00 0.00 0.00 0.00
0.00 0.00 0.00 0.00 0.00 0.00 0.00 0.00 0.00 0.00 0.00 0.00 0.00 0.00 0.00 0.00 0.00 0.00 0.00 0.00 0.00 0.00 0.00 0.00 0.00 0.00 0.00 0.00 0.00 0.00 0.00 0.00 0.00 0.00 0.00 0.00 0.00 0.00 0.00 0.00 0.00 0.00 0.00 0.00
0.00 0.00 0.00 0.00 0.00 0.00 0.00 0.00 0.00 0.00 0.00 0.00 0.00 0.00 0.00 0.00 0.00 0.00 0.00 0.00 0.00 0.00 0.00 0.00 0.00 0.00 0.00 0.00 0.00 0.00 0.00 0.00 0.00 0.00 0.00 0.00 0.00 0.00 0.00 0.00 0.00 0.00 0.00 0.00
0.00 0.00 0.00 0.00 0.00 0.00 0.00 0.00 0.00 0.00 0.00 0.00 0.00 0.00 0.00 0.00 0.00 0.00 0.00 0.00 0.00 0.00 0.00 0.00 0.00 0.00 0.00 0.00 0.00 0.00 0.00 0.00 0.00 0.00 0.00 0.00 0.00 0.00 0.00 0.00 0.00 0.00 0.00 0.00
0.00 0.00 0.00 0.00 0.00 0.00 0.00 0.00 0.00 0.00 0.00 0.00 0.00 0.00 0.00 0.00 0.00 0.00 0.00 0.00 0.00 0.00 0.00 0.00 0.00 0.00 0.00 0.00 0.00 0.00 0.00 0.00 0.00 0.00 0.00 0.00 0.00 0.00 0.00 0.00 0.00 0.00 0.00 0.00
0.00 0.00 0.00 0.00 0.00 0.00 0.00 0.00 0.00 0.00 0.00 0.00 0.00 0.00 0.00 0.00 0.00 0.00 0.00 0.00 0.00 0.00 0.00 0.00 0.00 0.00 0.00 0.00 0.00 0.00 0.00 0.00 0.00 0.00 0.00 0.00 0.00 0.00 0.00 0.00 0.00 0.00 0.00 0.00
0.00 0.00 0.00 0.00 0.00 0.00 0.00 0.00 0.00 0.00 0.00 0.00 0.00 0.00 0.00 0.00 0.00 0.00 0.00 0.00 0.00 0.00 0.00 0.00 0.00 0.00 0.00 0.00 0.00 0.00 0.00 0.00 0.00 0.00 0.00 0.00 0.00 0.00 0.00 0.00 0.00 0.00 0.00 0.00
0.00 0.00 0.00 0.00 0.00 0.00 0.00 0.00 0.00 0.00 0.00 0.00 0.00 0.00 0.00 0.00 0.00 0.00 0.00 0.00 0.01 0.01 0.01 0.00 0.00 0.00 0.00 0.00 0.00 0.00 0.00 0.00 0.00 0.00 0.00 0.00 0.00 0.00 0.00 0.00 0.00 0.00 0.00 0.00
0.00 0.00 0.00 0.00 0.00 0.00 0.00 0.00 0.00 0.00 0.00 0.00 0.00 0.00 0.00 0.00 0.00 0.00 0.00 0.00 0.00 0.01 0.01 0.01 0.00 0.00 0.00 0.00 0.00 0.00 0.00 0.00 0.00 0.00 0.00 0.00 0.00 0.00 0.00 0.00 0.00 0.00 0.00 0.00
0.00 0.00 0.00 0.00 0.00 0.00 0.00 0.00 0.00 0.00 0.00 0.00 0.00 0.00 0.00 0.00 0.00 0.00 0.00 0.01 0.01 0.00 0.00 0.00 0.00 0.00 0.00 0.00 0.00 0.00 0.00 0.00 0.00 0.00 0.00 0.00 0.00 0.00 0.00 0.00 0.00 0.00 0.00 0.00
0.00 0.00 0.00 0.00 0.00 0.00 0.00 0.00 0.00 0.00 0.00 0.00 0.00 0.00 0.00 0.00 0.00 0.00 0.01 0.02 0.03 0.04 0.01 0.00 0.00 0.00 0.00 0.00 0.00 0.00 0.00 0.00 0.00 0.00 0.00 0.00 0.00 0.00 0.00 0.00 0.00 0.00 0.00 0.00
0.00 0.00 0.00 0.00 0.00 0.00 0.00 0.00 0.00 0.00 0.00 0.00 0.00 0.00 0.00 0.00 0.00 0.01 0.01 0.01 0.00 0.01 0.01 0.00 0.00 0.00 0.00 0.00 0.00 0.00 0.00 0.00 0.00 0.00 0.00 0.00 0.00 0.00 0.00 0.00 0.00 0.00 0.00 0.00
MSLP
1012.61 1012.15 1011.60 1010.85 1010.11 1009.59 1009.46 1009.14 1010.18 1011.31 1011.65 1011.91 1012.75 1013.52 1014.32 1015.04 1015.66 1015.93 1015.90 1016.31 1016.62 1016.67 1016.82 1017.20 1017.55 1017.61 1017.61 1018.39 1018.06 1018.56 1018.79 1019.45 1019.82 1020.12 1020.23 1020.22 1020.38 1020.33 1019.95 1019.99 1020.04 1020.10 1020.20 1020.37
1012.88 1012.14 1011.66 1010.98 1010.12 1009.22 1009.02 1009.48 1010.21 1011.20 1011.95 1012.27 1013.24 1013.50 1014.35 1015.16 1015.56 1015.99 1016.49 1016.71 1017.18 1017.23 1017.39 1017.56 1017.94 1018.29 1018.56 1018.57 1018.58 1018.76 1019.08 1019.78 1020.18 1020.29 1020.52 1020.72 1020.67 1020.79 1020.54 1020.41 1020.38 1020.06 1020.12 1020.18
1013.79 1012.86 1011.93 1011.73 1010.82 1010.17 1009.50 1009.27 1009.66 1011.45 1011.46 1012.47 1013.47 1014.11 1014.51 1015.28 1015.97 1016.35 1016.86 1017.30 1017.66 1017.80 1018.03 1018.27 1018.39 1018.69 1018.88 1019.09 1019.27 1019.76 1020.10 1020.40 1020.69 1020.44 1020.47 1020.73 1021.06 1021.32 1021.23 1021.07 1020.93 1020.60 1020.20 1020.21
1014.76 1013.56 1012.97 1011.75 1011.18 1010.42 1009.79 1009.90 1010.55 1011.00 1012.16 1013.12 1013.92 1014.56 1015.15 1015.64 1016.00 1016.79 1017.35 1017.95 1018.27 1018.49 1018.79 1019.02 1019.25 1019.51 1019.69 1019.99 1020.30 1020.67 1021.02 1021.17 1021.12 1021.12 1020.87 1020.66 1020.95 1021.28 1021.36 1021.27 1021.01 1021.46 1020.57 1020.50
1015.48 1015.18 1013.89 1012.13 1011.66 1011.46 1011.68 1011.60 1011.43 1011.89 1013.11 1014.15 1014.63 1015.12 1016.42 1016.56 1016.83 1017.22 1018.06 1018.53 1018.99 1019.37 1019.80 1020.11 1020.54 1020.94 1020.94 1021.18 1021.45 1021.67 1022.02 1021.94 1021.98 1021.69 1021.30 1021.50 1020.96 1021.46 1021.87 1021.80 1021.82 1021.44 1021.13 1020.92
1016.17 1016.21 1015.32 1013.17 1011.91 1011.30 1012.03 1012.65 1012.39 1012.33 1013.52 1014.10 1014.86 1015.93 1017.08 1017.30 1017.53 1018.34 1018.91 1019.18 1019.64 1020.27 1020.75 1021.22 1021.88 1021.82 1021.92 1022.41 1022.52 1022.92 1023.06 1023.06 1022.79 1022.34 1021.94 1022.20 1021.91 1022.25 1021.76 1021.88 1021.91 1021.34 1021.14 1020.99
1016.57 1016.59 1015.98 1013.06 1012.15 1011.69 1013.05 1014.11 1013.54 1014.15 1014.66 1015.07 1015.71 1015.95 1016.92 1017.76 1018.53 1018.89 1019.57 1020.05 1020.53 1021.10 1021.77 1022.37 1022.66 1022.71 1023.18 1023.58 1024.00 1024.13 1023.93 1023.83 1023.71 1023.39 1023.17 1022.95 1022.49 1022.03 1021.90 1021.60 1021.19 1020.83 1021.34 1021.71
1017.16 1016.31 1015.54 1013.72 1012.60 1013.26 1013.90 1014.37 1014.33 1015.05 1015.82 1016.27 1016.31 1017.09 1017.92 1018.46 1019.32 1019.85 1020.46 1021.13 1021.57 1022.24 1022.98 1023.16 1023.31 1023.43 1024.29 1024.63 1024.87 1024.60 1024.55 1024.46 1024.40 1024.28 1024.01 1023.63 1023.21 1022.95 1022.97 1022.61 1022.55 1022.50 1022.45 1022.39
1017.17 1016.74 1015.39 1014.62 1014.26 1013.99 1014.09 1014.11 1014.82 1015.52 1016.38 1016.70 1017.34 1018.07 1018.75 1019.31 1019.53 1020.09 1020.98 1021.96 1022.48 1023.11 1023.85 1024.35 1024.03 1024.14 1024.68 1025.22 1025.11 1025.13 1025.09 1025.11 1025.01 1024.80 1024.60 1024.46 1024.29 1024.16 1024.07 1024.04 1023.92 1023.86 1023.62 1023.41
1017.13 1016.85 1016.12 1015.24 1014.60 1014.38 1014.74 1015.08 1015.23 1015.65 1016.45 1017.19 1017.73 1018.66 1019.47 1019.95 1020.48 1021.07 1021.83 1022.32 1023.05 1023.68 1024.38 1024.90 1024.78 1024.82 1025.12 1025.20 1025.20 1025.26 1025.58 1025.69 1025.74 1025.68 1025.46 1025.31 1025.21 1024.94 1024.90 1024.94 1024.84 1024.82 1024.74 1024.62
1018.12 1017.45 1016.64 1016.01 1015.71 1015.43 1015.54 1015.65 1016.09 1016.73 1017.00 1017.62 1018.30 1019.30 1019.74 1020.52 1021.15 1021.74 1022.40 1023.19 1023.74 1024.22 1024.72 1025.12 1025.13 1025.27 1025.39 1025.44 1025.39 1025.69 1025.97 1026.14 1026.34 1026.29 1026.31 1026.19 1025.94 1025.91 1025.78 1025.75 1025.74 1025.82 1025.82 1025.55
1018.12 1017.85 1017.74 1017.04 1016.45 1016.23 1016.16 1016.32 1016.69 1017.02 1017.87 1018.54 1018.95 1019.67 1020.38 1021.20 1021.65 1022.20 1022.76 1023.38 1024.09 1024.45 1024.83 1025.33 1025.46 1025.57 1025.59 1025.62 1025.71 1026.01 1026.34 1026.55 1026.70 1026.79 1026.73 1026.65 1026.69 1026.54 1026.07 1025.94 1025.97 1026.10 1026.14 1026.08
1017.81 1017.44 1017.30 1016.97 1017.04 1016.84 1016.76 1016.78 1016.96 1017.34 1017.78 1018.69 1019.51 1019.98 1020.72 1021.44 1022.09 1022.37 1022.94 1023.33 1023.71 1024.13 1024.62 1025.10 1025.41 1025.66 1025.73 1025.94 1026.10 1026.35 1026.71 1026.95 1027.09 1027.20 1027.24 1027.25 1027.12 1027.02 1026.92 1026.60 1026.33 1026.35 1026.35 1026.11
1017.43 1017.29 1017.38 1017.25 1017.28 1017.19 1016.95 1017.10 1017.18 1017.52 1017.99 1018.49 1019.33 1020.24 1020.84 1021.62 1022.18 1022.46 1022.86 1023.00 1023.43 1024.04 1024.56 1024.93 1025.27 1025.59 1025.69 1025.92 1026.16 1026.55 1026.76 1026.99 1027.23 1027.55 1027.70 1027.71 1027.61 1027.51 1027.33 1027.12 1026.81 1026.55 1026.42 1026.44
1017.47 1017.35 1017.39 1017.45 1017.42 1017.41 1017.31 1017.40 1017.90 1018.18 1018.63 1019.27 1019.51 1020.09 1020.73 1021.35 1021.85 1022.10 1022.52 1022.90 1023.46 1024.00 1024.46 1024.80 1025.06 1025.31 1025.61 1025.85 1026.18 1026.63 1026.95 1027.26 1027.33 1027.54 1027.86 1027.97 1027.96 1027.91 1027.86 1027.82 1027.69 1027.42 1026.82 1026.33
1017.70 1017.60 1017.58 1017.65 1017.71 1017.79 1017.93 1017.99 1018.28 1018.61 1018.89 1019.03 1019.52 1020.03 1020.10 1020.39 1021.09 1021.62 1022.29 1022.81 1023.43 1023.83 1024.03 1024.34 1024.72 1024.88 1025.23 1025.63 1025.95 1026.35 1026.76 1026.94 1027.21 1027.41 1027.81 1028.06 1028.16 1028.28 1028.29 1028.18 1028.01 1027.83 1027.61 1027.35
1017.84 1017.91 1017.95 1018.04 1018.07 1018.12 1018.25 1018.40 1018.46 1018.49 1018.58 1019.07 1019.03 1019.30 1020.11 1020.64 1021.20 1021.68 1022.19 1022.27 1022.44 1022.88 1023.30 1023.82 1024.07 1024.43 1024.81 1025.28 1025.60 1026.06 1026.48 1026.71 1026.89 1027.14 1027.42 1027.71 1027.89 1028.02 1028.04 1027.98 1027.94 1027.82 1027.62 1027.21
1017.43 1017.52 1017.70 1017.96 1018.12 1018.25 1018.31 1018.32 1018.39 1018.26 1018.21 1018.05 1018.44 1018.98 1019.70 1020.14 1020.54 1020.80 1021.05 1021.41 1021.98 1022.59 1022.86 1022.98 1023.36 1023.87 1024.32 1024.77 1025.06 1025.54 1026.07 1026.52 1026.77 1026.99 1027.20 1027.44 1027.62 1027.70 1027.80 1027.85 1027.77 1027.58 1027.24 1026.92
1017.29 1017.33 1017.57 1017.72 1017.80 1018.02 1018.15 1018.20 1018.17 1018.18 1018.08 1018.07 1018.28 1018.28 1018.49 1018.81 1019.17 1020.28 1020.58 1021.10 1021.64 1022.02 1022.04 1022.45 1022.83 1023.26 1023.70 1024.11 1024.59 1025.11 1025.67 1026.15 1026.47 1026.69 1026.87 1027.07 1027.31 1027.45 1027.59 1027.66 1027.69 1027.54 1027.28 1026.98
1016.99 1017.10 1017.31 1017.67 1017.93 1018.05 1018.10 1018.12 1018.09 1018.16 1018.01 1018.06 1018.17 1018.32 1018.40 1018.45 1018.55 1019.18 1020.00 1020.57 1020.35 1020.10 1020.66 1021.40 1022.07 1022.44 1022.85 1023.40 1023.94 1024.46 1024.99 1025.48 1025.94 1026.27 1026.56 1026.83 1027.09 1027.29 1027.38 1027.46 1027.49 1027.43 1027.25 1027.03
1017.08 1017.12 1017.27 1017.65 1018.04 1018.19 1018.23 1018.31 1018.37 1018.22 1018.10 1018.07 1018.12 1018.12 1018.29 1018.38 1018.55 1018.81 1019.51 1019.88 1019.49 1019.97 1020.46 1020.43 1021.17 1021.66 1022.16 1022.66 1023.28 1023.96 1024.47 1024.99 1025.46 1025.79 1026.11 1026.38 1026.67 1026.85 1027.01 1027.08 1027.16 1027.10 1027.01 1026.80
1017.45 1017.55 1017.76 1017.91 1018.14 1018.37 1018.50 1018.58 1018.58 1018.51 1018.41 1018.30 1018.25 1018.15 1018.15 1018.21 1018.32 1018.33 1018.33 1018.38 1018.45 1018.91 1019.78 1020.38 1020.30 1020.59 1020.99 1021.60 1022.46 1023.11 1023.67 1024.17 1024.67 1025.17 1025.63 1025.92 1026.23 1026.56 1026.69 1026.67 1026.78 1026.69 1026.61 1026.39
1017.62 1017.95 1018.19 1018.38 1018.55 1018.74 1018.86 1018.88 1018.89 1018.83 1018.77 1018.67 1018.61 1018.51 1018.49 1018.26 1018.16 1018.13 1017.95 1017.66 1017.78 1018.20 1018.74 1019.17 1019.30 1019.47 1019.84 1020.64 1021.39 1022.06 1022.70 1023.28 1023.83 1024.33 1024.65 1024.88 1025.15 1025.48 1025.66 1025.78 1025.79 1025.83 1025.87 1025.78
1017.96 1018.30 1018.61 1018.82 1019.04 1019.18 1019.28 1019.32 1019.22 1019.10 1018.96 1018.76 1018.64 1018.58 1018.48 1018.26 1017.91 1017.63 1017.35 1017.18 1017.10 1017.33 1017.38 1017.88 1017.93 1018.13 1018.82 1019.72 1020.60 1021.22 1021.88 1022.43 1022.86 1023.31 1023.65 1023.90 1024.22 1024.40 1024.71 1024.83 1024.93 1024.95 1025.03 1024.95
1018.18 1018.51 1018.77 1018.99 1019.22 1019.53 1019.63 1019.53 1019.35 1019.29 1019.17 1019.01 1018.86 1018.61 1018.33 1018.03 1017.81 1017.24 1017.07 1016.87 1016.67 1016.67 1016.99 1017.07 1017.38 1017.72 1018.12 1018.83 1020.30 1020.56 1020.93 1021.51 1021.74 1022.18 1022.67 1023.08 1023.17 1023.41 1023.58 1023.79 1023.84 1023.82 1023.82 1023.71
1018.29 1018.57 1018.82 1018.96 1019.12 1019.35 1019.40 1019.57 1019.69 1019.56 1019.38 1019.29 1019.01 1018.82 1018.43 1017.93 1017.36 1016.65 1016.30 1016.12 1016.20 1016.34 1016.51 1016.73 1017.23 1017.44 1017.62 1017.90 1019.34 1020.10 1020.48 1020.84 1020.89 1021.27 1021.56 1021.83 1022.09 1022.30 1022.36 1022.49 1022.60 1022.61 1022.55 1022.59
1018.16 1018.51 1018.86 1019.18 1019.22 1019.26 1019.35 1019.33 1019.55 1019.53 1019.36 1019.25 1019.12 1018.83 1018.60 1018.22 1017.82 1017.11 1016.67 1016.50 1016.49 1016.43 1016.24 1016.56 1016.82 1017.38 1017.63 1018.21 1019.06 1019.48 1019.76 1019.69 1019.89 1020.20 1020.42 1020.74 1020.97 1020.99 1021.08 1021.15 1021.22 1021.33 1021.52 1021.71
Thickness
5653 5659 5672 5678 5689 5700 5706 5715 5711 5704 5714 5727 5726 5729 5731 5731 5728 5727 5730 5732 5733 5734 5735 5734 5735 5734 5736 5732 5738 5735 5736 5734 5735 5739 5740 5743 5744 5747 5753 5755 5756 5757 5757 5757
5648 5664 5667 5676 5690 5701 5714 5706 5705 5707 5708 5722 5718 5727 5727 5725 5726 5725 5724 5725 5725 5727 5728 5730 5727 5724 5723 5726 5729 5729 5727 5725 5725 5729 5732 5732 5735 5738 5741 5745 5747 5752 5753 5754
5631 5645 5655 5654 5674 5683 5703 5712 5712 5693 5710 5709 5707 5715 5719 5718 5715 5717 5717 5716 5716 5718 5719 5720 5720 5721 5721 5721 5721 5717 5717 5717 5719 5725 5724 5723 5724 5725 5728 5731 5733 5739 5746 5748
5614 5631 5628 5659 5673 5685 5702 5706 5705 5702 5699 5699 5700 5707 5709 5711 5711 5708 5707 5706 5705 5706 5707 5709 5709 5710 5710 5709 5710 5708 5706 5707 5709 5711 5714 5716 5717 5718 5721 5724 5727 5725 5734 5737
5602 5603 5630 5655 5661 5666 5665 5679 5693 5692 5690 5688 5689 5694 5686 5697 5700 5700 5697 5696 5694 5694 5694 5694 5693 5691 5693 5694 5695 5696 5693 5696 5697 5700 5706 5705 5710 5710 5710 5710 5712 5717 5724 5729
5600 5591 5591 5627 5655 5675 5668 5657 5683 5693 5685 5682 5684 5668 5670 5682 5687 5685 5684 5686 5686 5682 5681 5679 5674 5678 5680 5678 5680 5678 5679 5681 5685 5691 5696 5693 5696 5696 5702 5703 5704 5712 5716 5720
5595 5587 5599 5637 5653 5667 5644 5643 5670 5670 5670 5672 5663 5666 5668 5669 5670 5671 5668 5668 5669 5668 5664 5661 5661 5662 5661 5660 5659 5661 5665 5668 5670 5675 5679 5683 5688 5694 5697 5701 5703 5709 5708 5707
5580 5591 5594 5632 5649 5637 5639 5641 5653 5653 5652 5650 5655 5656 5655 5654 5653 5652 5648 5648 5650 5648 5644 5645 5647 5648 5642 5643 5645 5650 5653 5655 5657 5660 5665 5670 5676 5680 5681 5687 5686 5685 5689 5694
5585 5583 5607 5616 5625 5634 5636 5640 5641 5641 5639 5642 5643 5643 5642 5639 5641 5638 5636 5631 5631 5629 5628 5626 5633 5634 5631 5630 5634 5637 5640 5642 5645 5648 5652 5654 5658 5662 5665 5666 5668 5669 5672 5676
5585 5594 5599 5610 5619 5624 5627 5628 5634 5636 5635 5633 5633 5630 5624 5622 5624 5622 5620 5619 5616 5615 5611 5610 5615 5619 5620 5623 5625 5626 5626 5628 5629 5631 5635 5637 5640 5645 5649 5651 5653 5655 5657 5659
5570 5582 5592 5599 5604 5611 5612 5616 5618 5617 5619 5619 5618 5614 5613 5609 5610 5609 5607 5603 5602 5602 5600 5598 5602 5604 5606 5609 5612 5612 5611 5611 5611 5613 5616 5619 5623 5625 5628 5632 5635 5636 5638 5642
5565 5572 5568 5581 5594 5598 5601 5602 5603 5605 5601 5598 5599 5597 5595 5591 5593 5593 5592 5590 5587 5587 5586 5584 5585 5587 5590 5594 5596 5597 5596 5596 5596 5597 5600 5603 5605 5607 5612 5616 5619 5622 5625 5627
5568 5574 5576 5580 5580 5585 5588 5589 5593 5593 5592 5588 5584 5582 5579 5574 5572 5577 5575 5577 5578 5577 5574 5571 5571 5572 5574 5576 5578 5579 5579 5580 5580 5581 5583 5585 5589 5591 5593 5596 5600 5604 5607 5611
5572 5572 5570 5570 5570 5575 5582 5584 5583 5582 5581 5580 5575 5570 5568 5563 5562 5561 5561 5565 5566 5564 5562 5560 5559 5559 5561 5562 5562 5561 5563 5565 5565 5565 5566 5568 5571 5573 5576 5579 5582 5585 5590 5593
5565 5566 5563 5564 5566 5566 5569 5572 5570 5568 5566 5562 5564 5561 5558 5555 5552 5553 5551 5552 5552 5551 5549 5548 5548 5549 5549 5550 5548 5547 5547 5547 5549 5550 5551 5552 5554 5556 5557 5559 5560 5563 5570 5576
5558 5557 5556 5556 5555 5553 5555 5557 5554 5554 5554 5556 5554 5550 5552 5553 5549 5546 5541 5539 5538 5537 5538 5538 5536 5538 5538 5537 5536 5536 5536 5538 5537 5537 5536 5535 5536 5538 5539 5541 5543 5545 5547 5550
5553 5549 5548 5547 5544 5545 5545 5543 5544 5545 5545 5543 5545 5543 5537 5536 5533 5531 5528 5530 5534 5533 5532 5530 5530 5528 5527 5525 5524 5524 5523 5524 5526 5524 5524 5523 5523 5524 5525 5526 5527 5529 5531 5534
5550 5548 5544 5541 5537 5536 5535 5536 5534 5537 5539 5541 5539 5536 5532 5526 5527 5525 5524 5523 5521 5520 5521 5522 5521 5520 5518 5517 5516 5514 5512 5511 5511 5512 5511 5511 5511 5511 5511 5511 5513 5515 5517 5519
5547 5545 5541 5538 5536 5531 5528 5526 5527 5529 5529 5529 5529 5530 5529 5529 5527 5517 5514 5511 5511 5507 5508 5510 5510 5510 5506 5507 5504 5502 5500 5499 5498 5499 5499 5500 5498 5498 5497 5497 5496 5497 5499 5501
5548 5544 5539 5534 5531 5527 5523 5521 5520 5518 5518 5518 5518 5519 5517 5517 5518 5513 5506 5503 5508 5510 5504 5501 5499 5499 5497 5496 5496 5490 5488 5487 5486 5484 5484 5483 5482 5481 5481 5481 5480 5480 5481 5482
5544 5541 5537 5531 5525 5520 5517 5513 5511 5511 5510 5509 5508 5507 5505 5504 5502 5499 5492 5494 5502 5496 5492 5493 5490 5487 5486 5485 5486 5479 5477 5475 5473 5473 5471 5470 5469 5468 5467 5466 5464 5464 5464 5464
5533 5531 5527 5523 5517 5512 5508 5504 5502 5501 5499 5498 5498 5496 5494 5491 5489 5490 5490 5492 5493 5491 5484 5479 5484 5482 5481 5478 5475 5471 5469 5466 5463 5461 5458 5458 5457 5455 5453 5453 5451 5451 5450 5450
5527 5522 5517 5512 5509 5505 5501 5497 5494 5491 5488 5484 5480 5477 5475 5474 5473 5473 5476 5480 5480 5481 5479 5477 5477 5478 5477 5474 5469 5467 5464 5460 5456 5453 5452 5451 5449 5447 5447 5445 5444 5443 5440 5437
5519 5512 5507 5502 5497 5495 5491 5487 5483 5479 5475 5472 5467 5462 5459 5457 5459 5460 5462 5462 5465 5467 5473 5474 5473 5478 5474 5469 5464 5460 5458 5455 5452 5449 5447 5447 5444 5442 5440 5438 5435 5433 5430 5427
5511 5506 5500 5495 5491 5485 5481 5477 5474 5468 5461 5455 5449 5446 5447 5448 5448 5448 5445 5445 5445 5448 5454 5460 5465 5467 5468 5465 5453 5454 5453 5449 5449 5445 5441 5438 5438 5435 5434 5431 5429 5427 5424 5420
5502 5496 5493 5489 5484 5479 5476 5469 5464 5457 5449 5442 5438 5436 5437 5439 5441 5443 5442 5439 5438 5441 5444 5451 5453 5457 5460 5461 5450 5445 5444 5442 5443 5440 5437 5435 5432 5429 5429 5425 5422 5419 5417 5414
5497 5491 5485 5479 5476 5473 5470 5465 5458 5453 5445 5439 5436 5434 5431 5432 5431 5434 5434 5434 5434 5436 5442 5446 5450 5449 5446 5445 5443 5440 5438 5439 5439 5436 5434 5431 5427 5427 5424 5420 5415 5411 5407 5402